Location: Unspecified
(0.0000°N, 0.0000°E)
Time: 02:36:04
(UTC+00:00)

Vanguard 1 Rocket - All Passes

Search period start: 02 August 2014 00:00
Search period end: 12 August 2014 00:00
Orbit: 651 x 4229 km, 34.3° (Epoch: 29 July)

Date Brightness Start Highest point End Pass type
(mag) Time Alt. Az. Time Alt. Az. Time Alt. Az.
02 Aug - 03:47:17 10° N 03:47:41 10° NNE 03:48:06 10° NNE visible
02 Aug - 06:09:36 10° NW 06:14:54 58° NE 06:19:11 10° ESE daylight
02 Aug - 08:38:40 10° SW 08:40:09 11° SSW 08:41:43 10° S daylight
02 Aug - 13:37:47 10° S 13:43:19 13° SSE 13:50:10 10° SE daylight
02 Aug - 15:59:32 10° SSW 16:16:06 44° SE 16:39:58 10° ENE daylight
02 Aug - 18:26:23 10° SW 18:49:18 84° NW 19:14:43 10° NE visible
02 Aug - 21:01:00 10° W 21:24:00 38° NW 21:42:38 10° NNE visible
02 Aug - 23:51:07 10° NW 00:00:06 14° NNW 00:07:15 10° N visible
03 Aug - 04:58:43 10° NNW 05:04:11 26° NNE 05:08:10 10° E visible
03 Aug - 07:25:26 10° W 07:29:19 27° SW 07:33:10 10° SSE daylight
03 Aug - 14:49:29 10° SSW 15:02:02 29° SE 15:20:45 10° E daylight
03 Aug - 17:14:12 10° SW 17:34:13 75° SE 18:00:39 10° ENE daylight
03 Aug - 19:44:35 10° WSW 20:08:26 53° NW 20:30:58 10° NE visible
03 Aug - 22:27:29 10° WNW 22:44:24 22° NNW 22:57:14 10° NNE visible
04 Aug - 03:47:43 10° NNW 03:52:38 16° NNE 03:56:19 10° ENE visible
04 Aug - 06:13:34 10° WNW 06:19:05 76° SW 06:23:26 10° SE daylight
04 Aug - 13:40:45 10° S 13:48:16 16° SSE 13:58:23 10° ESE daylight
04 Aug - 16:03:07 10° SW 16:19:48 54° SE 16:44:48 10° ENE daylight
04 Aug - 18:30:30 10° WSW 18:52:54 72° NW 19:18:20 10° NE visible
04 Aug - 21:06:51 10° W 21:28:26 32° NNW 21:46:14 10° NNE visible
04 Aug - 23:58:10 10° NW 00:05:50 13° NNW 00:12:03 10° NNE visible
05 Aug - 02:36:05 10° NNW 02:40:09 13° N 02:43:27 10° NE visible
05 Aug - 05:02:01 10° NW 05:08:38 45° NNE 05:13:05 10° ESE visible
05 Aug - 07:30:57 10° WSW 07:33:32 15° SW 07:36:05 10° S daylight
05 Aug - 14:52:57 10° SSW 15:06:05 35° SE 15:26:40 10° E daylight
05 Aug - 17:18:02 10° SW 17:37:45 87° SE 18:04:31 10° NE daylight
05 Aug - 19:49:33 10° W 20:12:28 45° NW 20:34:27 10° NE visible
05 Aug - 22:34:49 10° WNW 22:49:48 19° NNW 23:01:21 10° NNE visible
06 Aug - 01:22:12 10° NNW 01:26:34 12° N 01:30:13 10° NNE visible
06 Aug - 03:50:21 10° NNW 03:57:24 25° NNE 04:02:04 10° E visible
06 Aug - 06:17:57 10° WNW 06:23:10 40° SW 06:27:18 10° SSE daylight
06 Aug - 13:43:53 10° S 13:52:49 20° SE 14:05:48 10° ESE daylight
06 Aug - 16:06:46 10° SW 16:23:22 64° SE 16:49:11 10° ENE daylight
06 Aug - 18:34:52 10° WSW 18:56:41 61° NW 19:21:49 10° NE visible
06 Aug - 21:13:15 10° WNW 21:33:19 27° NNW 21:49:59 10° NNE visible
07 Aug - 00:03:53 10° NNW 00:11:41 13° N 00:17:54 10° NNE visible
07 Aug - 02:38:08 10° NNW 02:45:16 18° NNE 02:50:14 10° ENE visible
07 Aug - 05:05:42 10° NW 05:12:55 78° NE 05:17:33 10° ESE visible
07 Aug - 14:56:28 10° SSW 15:09:52 43° SE 15:31:56 10° ENE daylight
07 Aug - 17:22:03 10° WSW 17:41:23 80° NW 18:08:09 10° NE daylight
07 Aug - 19:54:58 10° W 20:16:51 38° NNW 20:37:59 10° NNE visible
07 Aug - 22:42:02 10° NW 22:55:33 17° NNW 23:06:03 10° NNE visible
08 Aug - 01:24:33 10° NNW 01:32:02 15° N 01:37:33 10° NE visible
08 Aug - 03:53:28 10° NW 04:02:01 39° NNE 04:07:09 10° E visible
08 Aug - 06:22:52 10° W 06:27:12 23° SW 06:30:46 10° SSE daylight
08 Aug - 13:47:09 10° SSW 13:57:00 26° SE 14:12:25 10° E daylight
08 Aug - 16:10:34 10° SW 16:26:55 77° SE 16:53:12 10° ENE daylight
08 Aug - 18:39:35 10° WSW 19:00:42 51° NNW 19:25:15 10° NE visible
08 Aug - 21:20:06 10° WNW 21:38:38 23° NNW 21:54:03 10° NNE visible
09 Aug - 00:08:18 10° NNW 00:17:30 15° N 00:24:27 10° NNE visible
09 Aug - 02:40:49 10° NNW 02:50:12 26° NNE 02:56:00 10° ENE visible
09 Aug - 05:09:45 10° WNW 05:17:01 62° SW 05:21:40 10° SE visible
09 Aug - 12:39:58 10° SSE 12:44:22 13° SE 12:49:46 10° ESE daylight
09 Aug - 15:00:05 10° SW 15:13:29 54° SE 15:36:40 10° ENE daylight
09 Aug - 17:26:18 10° WSW 17:45:10 68° NW 18:11:37 10° NE daylight
09 Aug - 20:00:51 10° W 20:21:37 32° NNW 20:41:39 10° NNE visible
09 Aug - 22:48:33 10° NW 23:01:30 17° N 23:11:27 10° NNE visible
10 Aug - 01:27:15 10° NNW 01:37:19 20° NNE 01:43:59 10° ENE visible
10 Aug - 03:56:54 10° NW 04:06:26 62° NNE 04:11:47 10° ESE visible
10 Aug - 06:28:42 10° WSW 06:31:14 13° SW 06:33:29 10° S daylight
10 Aug - 13:50:32 10° SSW 14:00:54 33° SE 14:18:17 10° E daylight
10 Aug - 16:14:31 10° SW 16:30:33 89° NW 16:56:55 10° NE daylight
10 Aug - 18:44:39 10° W 19:05:02 43° NNW 19:28:41 10° NE visible
10 Aug - 21:27:08 10° WNW 21:44:21 21° NNW 21:58:35 10° NNE visible
11 Aug - 00:11:58 10° NNW 00:23:10 18° N 00:31:04 10° NE visible
11 Aug - 02:43:49 10° NW 02:54:57 38° NNE 03:01:12 10° E visible
11 Aug - 05:14:12 10° WNW 05:20:59 37° SW 05:25:29 10° SSE visible
11 Aug - 12:42:20 10° S 12:48:43 17° SE 12:57:41 10° ESE daylight
11 Aug - 15:03:50 10° SW 15:17:04 66° SE 15:40:57 10° ENE daylight
11 Aug - 17:30:50 10° WSW 17:49:12 57° NNW 18:14:59 10° NE daylight
11 Aug - 20:07:12 10° WNW 20:26:50 27° NNW 20:45:35 10° NNE visible
11 Aug - 22:54:04 10° NW 23:07:29 18° N 23:17:31 10° NE visible
